Location: Casco Volunteer Fire Department
(44.5576°N, 87.6146°W)
Time: 05:11:50
(UTC+00:00)

USA 59 Rocket - Pass Details

Date: 22 January 2026
Orbit: 369 x 1672 km, 63.3° (Epoch: 10 February)

Event Time Altitude Azimuth Distance (km) Brightness Sun altitude
Rises 23:38:09 0° 322° (NW) 2,403 3.4 -9.4°
Reaches altitude 10° 23:40:00 10° 323° (NW) 1,625 2.5 -9.7°
Maximum altitude 23:43:33 86° 53° (NE) 563 -0.2 -10.3°
Drops below altitude 10° 23:48:20 10° 143° (SE) 2,183 2.7 -11.2°
Sets 23:51:08 0° 143° (SE) 3,328 3.6 -11.6°
